TimeEDT,TemperatureF,Dew PointF,Humidity,Sea Level PressureIn,VisibilityMPH,Wind Direction,Wind SpeedMPH,Gust SpeedMPH,PrecipitationIn,Events,Conditions,WindDirDegrees,DateUTC
12:56 AM,79.0,73.0,82,30.00,10.0,SSW,3.5,-,N/A,,Clear,210,2013-07-19 04:56:00
1:56 AM,79.0,72.0,79,29.99,10.0,Calm,Calm,-,N/A,,Clear,0,2013-07-19 05:56:00
2:56 AM,77.0,73.0,88,30.00,9.0,WSW,3.5,-,N/A,,Clear,250,2013-07-19 06:56:00
3:56 AM,75.9,72.0,87,29.99,8.0,SW,3.5,-,N/A,,Clear,220,2013-07-19 07:56:00
4:56 AM,75.9,73.0,91,29.98,8.0,WSW,4.6,-,N/A,,Partly Cloudy,250,2013-07-19 08:56:00
5:56 AM,75.9,72.0,87,29.99,7.0,Calm,Calm,-,N/A,,Clear,0,2013-07-19 09:56:00
6:56 AM,78.1,73.0,84,29.98,6.0,West,3.5,-,N/A,,Haze,260,2013-07-19 10:56:00
7:56 AM,81.0,73.9,79,29.98,6.0,WSW,4.6,-,N/A,,Haze,250,2013-07-19 11:56:00
8:56 AM,84.0,73.9,72,29.99,6.0,WSW,5.8,-,N/A,,Haze,250,2013-07-19 12:56:00
9:56 AM,87.1,73.9,65,29.98,8.0,WSW,6.9,-,N/A,,Clear,250,2013-07-19 13:56:00
10:56 AM,91.0,75.0,59,29.97,9.0,WSW,8.1,-,N/A,,Partly Cloudy,240,2013-07-19 14:56:00
11:56 AM,91.9,73.0,54,29.96,9.0,WSW,10.4,-,N/A,,Scattered Clouds,250,2013-07-19 15:56:00
12:56 PM,93.9,71.1,47,29.94,10.0,West,10.4,17.3,N/A,,Clear,270,2013-07-19 16:56:00
1:56 PM,95.0,71.1,46,29.92,10.0,WSW,12.7,-,N/A,,Partly Cloudy,240,2013-07-19 17:56:00
2:56 PM,96.1,70.0,43,29.88,10.0,SW,11.5,18.4,N/A,,Scattered Clouds,230,2013-07-19 18:56:00
3:56 PM,96.1,72.0,46,29.86,10.0,SW,10.4,-,N/A,,Scattered Clouds,230,2013-07-19 19:56:00
4:40 PM,93.2,71.6,49,29.86,9.0,SW,10.4,-,N/A,Thunderstorm,Scattered Clouds,220,2013-07-19 20:40:00
4:56 PM,86.0,64.9,49,29.88,10.0,NW,8.1,21.9,N/A,Thunderstorm,Mostly Cloudy,320,2013-07-19 20:56:00
5:56 PM,79.0,71.1,77,29.86,10.0,SW,5.8,-,0.00,Thunderstorm,Mostly Cloudy,220,2013-07-19 21:56:00
6:56 PM,84.0,70.0,63,29.85,9.0,WNW,4.6,-,N/A,Thunderstorm,Partly Cloudy,290,2013-07-19 22:56:00
7:46 PM,78.8,69.8,74,29.89,9.0,WSW,12.7,-,0.01,,Partly Cloudy,250,2013-07-19 23:46:00
7:56 PM,79.0,69.1,72,29.90,10.0,West,12.7,-,0.01,,Partly Cloudy,270,2013-07-19 23:56:00
8:56 PM,75.0,70.0,84,29.86,10.0,West,9.2,-,0.00,Rain-Thunderstorm,Light Rain,260,2013-07-20 00:56:00
9:05 PM,75.2,69.8,83,29.86,10.0,West,8.1,-,0.00,Rain,Light Rain,270,2013-07-20 01:05:00
9:56 PM,77.0,71.1,82,29.82,9.0,NW,5.8,-,0.00,,Partly Cloudy,320,2013-07-20 01:56:00
10:56 PM,77.0,70.0,79,29.87,9.0,Variable,5.8,-,N/A,,Clear,0,2013-07-20 02:56:00
11:56 PM,75.9,71.1,85,29.87,8.0,NW,5.8,-,N/A,,Clear,310,2013-07-20 03:56:00